Location: Mexico
(19.4000°N, 99.1500°W)
Time: 05:59:39
(UTC-06:00)

ISS - Pass Details

Date: 19 March 2019
Orbit: 408 x 411 km, 51.6° (Epoch: 24 March)

Event Time Altitude Azimuth Distance (km) Brightness Sun altitude
Exits shadow 04:42:24 16° 61° (ENE) 1,152 -0.8 -28.8°
Drops below altitude 10° 04:43:59 10° 89° (E) 1,461 -0.1 -28.5°
Sets 04:46:35 0° 111° (ESE) 2,320 0.9 -27.9°
